Bellaire, MI

2:31 AM EDT on August 23, 2017 (GMT -0400)
Antrim County

Weather History for KACB - October, 2013

Change the Weather History Date:

Monday, October 21, 2013

  Actual Average (KCVX) Record (KCVX)
Temperature  
Mean Temperature 42 °F -  
Max Temperature 49 °F 55 °F 71 °F (2007)
Min Temperature 36 °F 43 °F 30 °F (2005)
Degree Days  
Heating Degree Days 22    
Moisture  
Dew Point 39 °F    
Average Humidity 81    
Maximum Humidity 95    
Minimum Humidity 60    
Precipitation  
Precipitation 0.00 in - - ()
Sea Level Pressure  
Sea Level Pressure 29.71 in    
Wind  
Wind Speed 6 mph (SW)    
Max Wind Speed 13 mph    
Max Gust Speed 23 mph    
Visibility 9 miles    
Events Rain , Snow    
Averages and records for this station are not official NWS values.
T = Trace of Precipitation, MM = Missing Value Source: NWS Daily Summary

Daily Weather History Graph

Daily Weather History Graph

Search for Another Location

Airport or City:

Trip Planner

Search our weather history database for the weather conditions in past years. The results will help you decide how hot, cold, wet, or windy it might be!

Date:

Astronomy

Oct. 21, 2013 Rise Set
Actual Time 8:04 AM EDT 6:45 PM EDT
Civil Twilight 7:34 AM EDT 7:15 PM EDT
Nautical Twilight 7:00 AM EDT 7:49 PM EDT
Astronomical Twilight 6:26 AM EDT 8:23 PM EDT
Moon 8:31 PM EDT (10/21) 10:45 AM EDT (10/21)
Length of Visible Light 11h 40m
Length of Day
10h 40m
Waning Gibbous, 93% of the Moon is Illuminated
Oct 21
Waning Gibbous
Oct 26
Last Quarter
Nov 3
New
Nov 10
First Quarter
Nov 17
Full

Hourly Weather History & Observations

Time (EDT) Temp. Windchill Dew Point Humidity Pressure Visibility Wind Dir Wind Speed Gust Speed Precip Events Conditions
12:16 AM 46.6 °F - 44.8 °F 93% 29.66 in 10.0 mi South 4.6 mph - N/A Rain Light Rain
12:37 AM 46.9 °F - 45.1 °F 93% 29.65 in 10.0 mi South 5.8 mph - N/A Rain Light Rain
12:56 AM 46.9 °F - 45.1 °F 93% 29.65 in 4.0 mi SSW 5.8 mph - N/A Rain Light Rain
1:16 AM 47.3 °F - 45.7 °F 94% 29.65 in 10.0 mi South 3.5 mph - N/A   Overcast
1:36 AM 48.6 °F - 46.8 °F 93% 29.64 in 10.0 mi South 6.9 mph - N/A   Overcast
1:56 AM 49.1 °F - 46.9 °F 92% 29.65 in 10.0 mi South 6.9 mph - N/A   Overcast
2:17 AM 49.1 °F - 46.9 °F 92% 29.65 in 10.0 mi SSW 5.8 mph - N/A   Overcast
2:36 AM 49.1 °F - 47.3 °F 93% 29.65 in 10.0 mi Calm Calm - N/A   Overcast
2:56 AM 49.3 °F - 46.9 °F 92% 29.65 in 10.0 mi Calm Calm - N/A   Overcast
3:17 AM 49.1 °F - 46.4 °F 90% 29.65 in 10.0 mi Calm Calm - N/A   Overcast
3:36 AM 49.1 °F - 46.9 °F 92% 29.65 in 10.0 mi South 4.6 mph - N/A   Overcast
3:56 AM 48.4 °F - 46.4 °F 93% 29.65 in 10.0 mi South 4.6 mph - N/A Rain Light Rain
4:17 AM 47.8 °F - 46.4 °F 95% 29.64 in 5.0 mi South 5.8 mph - N/A Rain Light Rain
4:36 AM 48.2 °F - 46.8 °F 95% 29.64 in 7.0 mi South 4.6 mph - N/A Rain Light Rain
4:56 AM 48.6 °F - 47.3 °F 95% 29.63 in 7.0 mi South 5.8 mph - N/A Rain Light Rain
5:17 AM 49.3 °F - 47.7 °F 94% 29.63 in 4.0 mi SSW 5.8 mph - N/A Rain Light Rain
5:36 AM 49.3 °F - 47.5 °F 94% 29.64 in 10.0 mi SW 5.8 mph - N/A   Overcast
5:56 AM 49.6 °F - 47.3 °F 92% 29.64 in 10.0 mi SSW 5.8 mph - N/A   Overcast
6:17 AM 49.6 °F - 45.9 °F 87% 29.65 in 10.0 mi SW 8.1 mph - N/A   Overcast
6:36 AM 49.5 °F - 45.0 °F 84% 29.65 in 10.0 mi SW 8.1 mph 18.4 mph N/A   Overcast
6:57 AM 49.1 °F - 44.6 °F 84% 29.66 in 10.0 mi SW 6.9 mph - N/A   Overcast
7:17 AM 48.4 °F - 44.2 °F 86% 29.66 in 10.0 mi SW 8.1 mph - N/A Rain Rain
7:36 AM 46.9 °F - 44.2 °F 90% 29.67 in 7.0 mi SW 3.5 mph - N/A Rain Light Rain
7:57 AM 46.4 °F 42.9 °F 44.1 °F 92% 29.68 in 4.0 mi WSW 6.9 mph - N/A Rain Light Rain
8:17 AM 45.9 °F 41.7 °F 43.5 °F 92% 29.69 in 10.0 mi SW 8.1 mph 16.1 mph N/A Rain Light Rain
8:36 AM 45.3 °F 41.1 °F 42.3 °F 89% 29.70 in 7.0 mi SW 8.1 mph 23.0 mph N/A Rain Light Rain
8:57 AM 45.5 °F 42.5 °F 42.1 °F 88% 29.70 in 10.0 mi SW 5.8 mph - N/A   Overcast
9:17 AM 45.5 °F 43.2 °F 40.8 °F 84% 29.71 in 10.0 mi WSW 4.6 mph 18.4 mph N/A   Overcast
9:36 AM 45.5 °F 43.2 °F 40.1 °F 81% 29.72 in 7.0 mi WSW 4.6 mph - N/A Rain Light Rain
9:57 AM 44.6 °F 39.7 °F 40.6 °F 86% 29.72 in 4.0 mi WSW 9.2 mph - N/A Rain Light Rain
10:17 AM 43.9 °F 39.9 °F 40.3 °F 87% 29.73 in 7.0 mi SW 6.9 mph 16.1 mph N/A Rain Light Rain
10:36 AM 43.7 °F 41.1 °F 40.3 °F 88% 29.73 in 5.0 mi West 4.6 mph - N/A Rain Light Rain
10:57 AM 44.1 °F 40.8 °F 40.6 °F 88% 29.73 in 10.0 mi West 5.8 mph - N/A Rain Light Rain
11:16 AM 43.5 °F 40.1 °F 39.6 °F 86% 29.74 in 10.0 mi WSW 5.8 mph - N/A Rain Light Rain
11:37 AM 44.2 °F 41.8 °F 39.6 °F 84% 29.74 in 10.0 mi WSW 4.6 mph 17.3 mph N/A Rain Light Rain
11:57 AM 44.2 °F 39.7 °F 39.6 °F 84% 29.74 in 10.0 mi WSW 8.1 mph 17.3 mph N/A   Overcast
12:16 PM 44.8 °F 42.4 °F 39.7 °F 82% 29.74 in 10.0 mi West 4.6 mph - N/A   Overcast
12:37 PM 43.0 °F 39.5 °F 40.1 °F 90% 29.75 in 5.0 mi West 5.8 mph - N/A   Overcast
12:57 PM 44.4 °F 42.0 °F 40.5 °F 86% 29.75 in 10.0 mi West 4.6 mph - N/A   Overcast
1:16 PM 44.6 °F 40.7 °F 40.8 °F 87% 29.75 in 4.0 mi WSW 6.9 mph - N/A   Overcast
1:37 PM 44.2 °F 40.3 °F 39.6 °F 84% 29.74 in 10.0 mi WSW 6.9 mph 20.7 mph N/A   Overcast
1:57 PM 44.6 °F 41.4 °F 39.2 °F 81% 29.74 in 10.0 mi West 5.8 mph - N/A   Overcast
2:16 PM 45.7 °F 41.0 °F 38.8 °F 77% 29.74 in 10.0 mi West 9.2 mph - N/A   Overcast
2:37 PM 45.1 °F 40.8 °F 37.6 °F 75% 29.73 in 10.0 mi WSW 8.1 mph - N/A   Overcast
2:57 PM 45.1 °F 40.3 °F 36.7 °F 72% 29.73 in 10.0 mi West 9.2 mph - N/A   Overcast
3:16 PM 44.6 °F 41.4 °F 36.5 °F 73% 29.74 in 10.0 mi WSW 5.8 mph 19.6 mph N/A   Overcast
3:37 PM 44.8 °F 41.6 °F 36.3 °F 72% 29.73 in 10.0 mi SW 5.8 mph - N/A   Overcast
3:57 PM 45.0 °F 40.1 °F 36.7 °F 73% 29.73 in 10.0 mi West 9.2 mph 17.3 mph N/A   Overcast
4:17 PM 41.4 °F 37.6 °F 37.4 °F 86% 29.74 in 3.0 mi SW 5.8 mph 17.3 mph N/A   Unknown
4:37 PM 41.7 °F 36.7 °F 37.6 °F 85% 29.75 in 10.0 mi WSW 8.1 mph - N/A   Overcast
4:56 PM 42.1 °F 40.2 °F 37.0 °F 82% 29.74 in 10.0 mi WSW 3.5 mph - N/A   Overcast
5:17 PM 43.0 °F 37.7 °F 36.0 °F 76% 29.74 in 10.0 mi WSW 9.2 mph - N/A   Overcast
5:37 PM 43.2 °F 39.0 °F 33.6 °F 69% 29.74 in 10.0 mi WSW 6.9 mph 16.1 mph N/A   Overcast
5:56 PM 43.0 °F 38.2 °F 32.0 °F 65% 29.75 in 10.0 mi WSW 8.1 mph - N/A   Overcast
6:17 PM 42.4 °F 38.1 °F 32.9 °F 69% 29.75 in 10.0 mi WSW 6.9 mph - N/A   Unknown
6:37 PM 42.3 °F 37.3 °F 32.0 °F 67% 29.75 in 10.0 mi WSW 8.1 mph 18.4 mph N/A   Unknown
6:56 PM 42.1 °F 37.7 °F 31.5 °F 66% 29.76 in 10.0 mi West 6.9 mph 16.1 mph N/A   Overcast
7:17 PM 41.9 °F 35.4 °F 30.6 °F 64% 29.76 in 10.0 mi WSW 11.5 mph 18.4 mph N/A Rain Light Rain
7:37 PM 41.4 °F 35.2 °F 30.2 °F 65% 29.77 in 10.0 mi WSW 10.4 mph - N/A   Overcast
7:56 PM 41.0 °F 34.3 °F 28.9 °F 62% 29.77 in 10.0 mi West 11.5 mph - N/A   Overcast
8:17 PM 41.0 °F 34.7 °F 28.0 °F 60% 29.77 in 10.0 mi SW 10.4 mph 19.6 mph N/A   Overcast
8:37 PM 41.0 °F 37.1 °F 27.9 °F 60% 29.77 in 10.0 mi WSW 5.8 mph 18.4 mph N/A   Overcast
8:56 PM 40.5 °F - 28.6 °F 63% 29.77 in 10.0 mi Calm Calm - N/A   Overcast
9:17 PM 39.2 °F 33.0 °F 30.0 °F 70% 29.78 in 10.0 mi WSW 9.2 mph 23.0 mph N/A   Unknown
9:37 PM 38.7 °F 35.2 °F 29.8 °F 71% 29.77 in 10.0 mi WSW 4.6 mph - N/A   Overcast
9:56 PM 38.3 °F 30.9 °F 30.2 °F 73% 29.78 in 10.0 mi WNW 11.5 mph 19.6 mph N/A   Overcast
10:17 PM 37.8 °F 33.3 °F 29.7 °F 73% 29.77 in 10.0 mi West 5.8 mph 18.4 mph N/A   Overcast
10:37 PM 38.3 °F 32.5 °F 28.8 °F 69% 29.77 in 10.0 mi WSW 8.1 mph - N/A   Overcast
10:56 PM 37.6 °F 29.6 °F 28.0 °F 68% 29.77 in 10.0 mi SW 12.7 mph 19.6 mph N/A   Overcast
11:17 PM 38.1 °F 32.3 °F 27.5 °F 66% 29.76 in 10.0 mi SSW 8.1 mph 18.4 mph N/A   Overcast
11:37 PM 36.3 °F 31.6 °F 29.1 °F 75% 29.75 in 5.0 mi SW 5.8 mph 20.7 mph N/A Snow Light Snow
11:56 PM 36.9 °F 29.1 °F 28.6 °F 72% 29.76 in 10.0 mi WSW 11.5 mph 20.7 mph N/A Snow Light Snow